This is the latest recevied weather packets stored in our database for station/object WE1C. If no packets are shown the sender has not sent any weather packets the latest 10 day(s).
| Time | Temp. | Humidity | Pressure | Rain* | Wind** | Luminosity | Snow |
|---|---|---|---|---|---|---|---|
| 1777904811 | 16.67° C | 40% | 1039 hPa | 0 mm | - | 853 W/m² | - |
| 1777904508 | 16.67° C | 40% | 1039.3 hPa | 0 mm | - | 710 W/m² | - |
| 1777904205 | 16.11° C | 40% | 1039.2 hPa | 0 mm | - | 676 W/m² | - |
| 1777903902 | 16.67° C | 39% | 1039.1 hPa | 0 mm | - | 734 W/m² | - |
| 1777903599 | 16.11° C | 41% | 1039.1 hPa | 0 mm | - | 773 W/m² | - |
| 1777903294 | 16.11° C | 40% | 1039.2 hPa | 0 mm | - | 724 W/m² | - |
| 1777902992 | 15.56° C | 40% | 1039.3 hPa | 0 mm | - | 721 W/m² | - |
| 1777902688 | 15.56° C | 41% | 1039.2 hPa | 0 mm | - | 725 W/m² | - |
| 1777902386 | 15.56° C | 41% | 1039.3 hPa | 0 mm | - | 701 W/m² | - |
| 1777902082 | 15.56° C | 42% | 1039.5 hPa | 0 mm | - | 657 W/m² | - |
| 1777901781 | 15° C | 41% | 1039.6 hPa | 0 mm | - | 660 W/m² | - |
| 1777901477 | 15° C | 43% | 1039.8 hPa | 0 mm | - | 634 W/m² | - |
| 1777901175 | 14.44° C | 43% | 1039.7 hPa | 0 mm | - | 587 W/m² | - |
| 1777900873 | 14.44° C | 44% | 1039.7 hPa | 0 mm | - | 571 W/m² | - |
| 1777900570 | 15° C | 44% | 1039.8 hPa | 0 mm | - | 565 W/m² | - |
| 1777900267 | 14.44° C | 44% | 1039.9 hPa | 0 mm | - | 580 W/m² | - |
| 1777899963 | 14.44° C | 44% | 1039.8 hPa | 0 mm | - | 544 W/m² | - |
| 1777899659 | 14.44° C | 46% | 1039.8 hPa | 0 mm | - | 501 W/m² | - |
| 1777899358 | 13.89° C | 45% | 1040 hPa | 0 mm | - | 467 W/m² | - |
| 1777899055 | 13.33° C | 48% | 1039.9 hPa | 0 mm | - | 449 W/m² | - |
| 1777898751 | 13.33° C | 48% | 1039.9 hPa | 0 mm | - | 113 W/m² | - |
| 1777898449 | 12.78° C | 47% | 1039.9 hPa | 0 mm | - | 389 W/m² | - |
| 1777898147 | 12.78° C | 48% | 1040 hPa | 0 mm | - | 377 W/m² | - |
| 1777897844 | 12.22° C | 49% | 1040 hPa | 0 mm | - | 362 W/m² | - |
| 1777897540 | 11.67° C | 49% | 1040.2 hPa | 0 mm | - | 339 W/m² | - |
* Rain latest hour (hover to see other rain measurements)
** Current wind speed in m/s (hover to see current wind gust speed)